TimeCST,TemperatureF,Dew PointF,Humidity,Sea Level PressureIn,VisibilityMPH,Wind Direction,Wind SpeedMPH,Gust SpeedMPH,PrecipitationIn,Events,Conditions,WindDirDegrees,DateUTC
12:15 AM,14.9,10.8,84,30.03,10.0,SSW,13.8,-,N/A,,Clear,210,2013-01-05 06:15:00
12:35 AM,14.7,10.9,85,30.03,10.0,SW,12.7,-,N/A,,Clear,220,2013-01-05 06:35:00
12:55 AM,15.8,12.2,86,30.02,10.0,SW,15.0,-,N/A,,Clear,220,2013-01-05 06:55:00
1:15 AM,16.7,12.7,84,30.00,10.0,SW,9.2,-,N/A,,Clear,220,2013-01-05 07:15:00
1:35 AM,18.5,13.1,79,30.00,10.0,SW,9.2,-,N/A,,Clear,230,2013-01-05 07:35:00
1:55 AM,21.6,12.6,68,29.98,10.0,West,5.8,-,N/A,,Clear,260,2013-01-05 07:55:00
2:15 AM,19.8,11.3,70,29.98,10.0,West,6.9,-,N/A,,Clear,260,2013-01-05 08:15:00
2:35 AM,17.6,10.9,75,29.99,10.0,NW,5.8,-,N/A,,Clear,320,2013-01-05 08:35:00
2:54 AM,19.2,13.1,77,29.98,10.0,SW,4.6,-,N/A,,Clear,220,2013-01-05 08:54:00
3:15 AM,19.6,12.7,75,29.98,10.0,WSW,8.1,-,N/A,,Clear,250,2013-01-05 09:15:00
3:35 AM,16.9,12.2,82,29.97,10.0,SW,8.1,-,N/A,,Clear,220,2013-01-05 09:35:00
3:54 AM,15.6,11.7,84,29.96,10.0,SW,6.9,-,N/A,,Clear,220,2013-01-05 09:54:00
4:15 AM,15.1,11.7,86,29.95,10.0,WSW,4.6,-,N/A,,Clear,240,2013-01-05 10:15:00
4:35 AM,13.8,10.6,87,29.95,10.0,SW,3.5,-,N/A,,Clear,220,2013-01-05 10:35:00
4:55 AM,14.0,10.9,88,29.95,10.0,SSW,11.5,-,N/A,,Clear,210,2013-01-05 10:55:00
5:15 AM,12.7,9.9,88,29.95,7.0,SW,13.8,-,N/A,,Clear,220,2013-01-05 11:15:00
5:55 AM,12.2,9.5,89,29.93,7.0,SW,16.1,-,N/A,,Clear,220,2013-01-05 11:55:00
6:16 AM,13.1,10.0,88,29.93,10.0,SW,12.7,-,N/A,,Clear,220,2013-01-05 12:16:00
6:35 AM,13.6,10.2,86,29.93,10.0,SW,5.8,-,N/A,,Clear,220,2013-01-05 12:35:00
6:55 AM,15.4,11.3,84,29.93,10.0,WSW,10.4,-,N/A,,Clear,250,2013-01-05 12:55:00
7:15 AM,16.9,11.7,80,29.92,10.0,WSW,10.4,-,N/A,,Clear,240,2013-01-05 13:15:00
7:35 AM,18.1,12.6,79,29.92,10.0,WSW,6.9,10.4,N/A,,Clear,240,2013-01-05 13:35:00
7:55 AM,14.0,10.4,86,29.93,10.0,South,3.5,-,N/A,,Clear,170,2013-01-05 13:55:00
8:15 AM,15.6,11.7,84,29.93,10.0,WSW,8.1,-,N/A,,Clear,250,2013-01-05 14:15:00
8:35 AM,15.8,11.8,84,29.93,7.0,WSW,5.8,-,N/A,,Clear,240,2013-01-05 14:35:00
8:55 AM,16.0,11.7,83,29.93,7.0,WSW,5.8,-,N/A,,Clear,240,2013-01-05 14:55:00
9:14 AM,15.4,11.5,84,29.92,7.0,SW,15.0,-,N/A,,Clear,230,2013-01-05 15:14:00
9:55 AM,16.5,12.6,84,29.93,7.0,WSW,12.7,-,N/A,,Clear,250,2013-01-05 15:55:00
10:14 AM,17.4,13.1,83,29.92,7.0,SW,11.5,-,N/A,,Clear,220,2013-01-05 16:14:00
10:55 AM,18.5,13.1,79,29.92,7.0,West,12.7,16.1,N/A,,Clear,280,2013-01-05 16:55:00
11:15 AM,18.5,12.9,79,29.91,10.0,West,15.0,-,N/A,,Clear,270,2013-01-05 17:15:00
11:35 AM,21.0,14.4,75,29.90,10.0,West,12.7,-,N/A,,Clear,270,2013-01-05 17:35:00
11:55 AM,23.5,15.8,72,29.89,10.0,WNW,15.0,-,N/A,,Clear,300,2013-01-05 17:55:00
12:15 PM,24.4,16.7,72,29.89,10.0,WNW,16.1,-,N/A,,Clear,300,2013-01-05 18:15:00
12:35 PM,24.6,16.7,72,29.88,10.0,WNW,13.8,-,N/A,,Clear,290,2013-01-05 18:35:00
12:55 PM,24.8,17.6,74,29.88,10.0,WNW,15.0,-,N/A,,Clear,300,2013-01-05 18:55:00
1:15 PM,24.8,17.6,74,29.87,10.0,West,17.3,21.9,N/A,,Clear,280,2013-01-05 19:15:00
1:35 PM,24.4,17.6,75,29.87,10.0,West,17.3,-,N/A,,Clear,280,2013-01-05 19:35:00
1:55 PM,23.9,17.6,77,29.87,10.0,West,17.3,-,N/A,,Clear,280,2013-01-05 19:55:00
2:15 PM,23.9,17.6,77,29.87,10.0,WNW,19.6,-,N/A,,Clear,290,2013-01-05 20:15:00
2:35 PM,23.7,18.0,79,29.88,10.0,WNW,13.8,-,N/A,,Clear,300,2013-01-05 20:35:00
2:55 PM,23.7,18.1,79,29.88,10.0,West,16.1,-,N/A,,Clear,280,2013-01-05 20:55:00
3:15 PM,22.8,17.6,80,29.89,10.0,WNW,18.4,-,N/A,,Clear,290,2013-01-05 21:15:00
3:34 PM,22.1,17.4,82,29.90,10.0,WNW,18.4,-,N/A,,Clear,290,2013-01-05 21:34:00
3:55 PM,21.6,17.1,83,29.91,10.0,WNW,15.0,19.6,N/A,,Clear,290,2013-01-05 21:55:00
4:15 PM,20.8,16.7,84,29.92,10.0,WNW,16.1,-,N/A,,Clear,290,2013-01-05 22:15:00
4:55 PM,18.9,15.1,85,29.93,10.0,WNW,13.8,-,N/A,,Clear,300,2013-01-05 22:55:00
5:15 PM,16.7,13.8,88,29.95,10.0,NW,10.4,-,N/A,,Clear,310,2013-01-05 23:15:00
5:35 PM,19.2,15.8,87,29.95,10.0,NW,18.4,-,N/A,,Mostly Cloudy,310,2013-01-05 23:35:00
5:55 PM,20.1,16.2,85,29.96,10.0,NW,20.7,-,N/A,,Overcast,310,2013-01-05 23:55:00
6:15 PM,19.9,15.8,84,29.97,10.0,NW,23.0,-,N/A,,Overcast,310,2013-01-06 00:15:00
6:35 PM,19.2,14.7,83,29.99,10.0,NW,25.3,29.9,N/A,,Overcast,320,2013-01-06 00:35:00
6:55 PM,17.8,13.8,84,30.00,10.0,NW,17.3,23.0,N/A,,Overcast,320,2013-01-06 00:55:00
7:15 PM,17.2,13.1,84,30.02,10.0,NW,19.6,24.2,N/A,,Overcast,320,2013-01-06 01:15:00
7:55 PM,14.5,11.5,88,30.03,4.0,NNW,20.7,24.2,N/A,Snow,Light Snow,330,2013-01-06 01:55:00
8:15 PM,14.4,11.8,90,30.04,4.0,NW,16.1,20.7,N/A,Snow,Light Snow,320,2013-01-06 02:15:00
8:35 PM,14.9,12.2,89,30.03,5.0,NNW,13.8,19.6,N/A,Snow,Light Snow,330,2013-01-06 02:35:00
8:54 PM,15.6,13.1,90,30.05,5.0,NW,19.6,24.2,N/A,,Overcast,320,2013-01-06 02:54:00
9:15 PM,14.7,10.6,84,30.05,5.0,NW,23.0,31.1,N/A,,Scattered Clouds,320,2013-01-06 03:15:00
9:35 PM,14.0,8.2,78,30.06,10.0,NW,15.0,-,N/A,,Clear,320,2013-01-06 03:35:00
9:54 PM,13.5,8.1,79,30.07,10.0,NW,18.4,23.0,N/A,,Scattered Clouds,310,2013-01-06 03:54:00
10:15 PM,13.8,8.6,80,30.08,10.0,NW,20.7,26.5,N/A,,Scattered Clouds,310,2013-01-06 04:15:00
10:35 PM,14.4,8.4,77,30.08,10.0,NW,18.4,-,N/A,,Scattered Clouds,320,2013-01-06 04:35:00
10:55 PM,13.5,7.2,76,30.08,10.0,NW,17.3,-,N/A,,Clear,320,2013-01-06 04:55:00
11:15 PM,13.1,6.6,75,30.08,10.0,NW,17.3,-,N/A,,Clear,310,2013-01-06 05:15:00
11:35 PM,12.4,6.1,76,30.09,10.0,NW,18.4,-,N/A,,Clear,310,2013-01-06 05:35:00
11:55 PM,11.7,5.5,76,30.10,10.0,NW,17.3,-,N/A,,Clear,310,2013-01-06 05:55:00